Regional Weather Roundup
Issued by NWS

Home | Current Version | Previous Version | Graphics & Text | Print | Product List | Glossary On
Versions: 1 2 3 4 5 6 7 8 9 10 11 12 13 14 15 16 17 18 19 20 21 22 23 24 25 26 27 28 29 30 31 32 33 34 35 36 37 38 39 40 41 42 43 44 45 46 47 48 49 50
000
ASUS43 KOAX 022102
RWRNE

WEATHER ROUNDUP FOR NEBRASKA
NATIONAL WEATHER SERVICE OMAHA NE
400 PM CDT THU JUL 02 2015

NOTES: SATELLITE DATA IS BEING USED TO AUGMENT CLOUD COVER ABOVE
       12000 FEET.
       "FAIR" INDICATES FEW OR NO CLOUDS BELOW 12,000 FEET WITH NO
       SIGNIFICANT WEATHER AND/OR OBSTRUCTIONS TO VISIBILITY.

  * THESE STATIONS DO NOT REPORT WEATHER SUCH AS RAIN...SNOW OR FOG.

NEZ001>004-019>022-054>056-022200-
NEBRASKA PANHANDLE

CITY           SKY/WX    TMP DP  RH WIND       PRES   REMARKS
SCOTTSBLUFF    MOSUNNY   83  55  38 N9        30.11F
ALLIANCE       MOSUNNY   79  59  50 N12       30.10S
CHADRON        MOSUNNY   80  60  50 NE8       30.08S
KIMBALL          N/A    N/A N/A N/A MISG        N/A
SIDNEY         MOSUNNY   82  57  42 N13G21    30.14F
$$

NEZ057>060-069>072-079>082-022200-
SOUTHWEST NEBRASKA

CITY           SKY/WX    TMP DP  RH WIND       PRES   REMARKS
NORTH PLATTE   MOSUNNY   82  59  45 N10G21    30.01S
IMPERIAL       MOSUNNY   83  56  39 N14       30.06S
LEXINGTON      MOSUNNY   78  68  71 N10       29.99F
MCCOOK         MOSUNNY   88  58  36 N13       29.99F
$$

NEZ005>010-023>029-035>040-094-022200-
NORTH CENTRAL NEBRASKA

CITY           SKY/WX    TMP DP  RH WIND       PRES   REMARKS
VALENTINE      MOSUNNY   80  57  45 N16G24    30.02S
AINSWORTH      MOSUNNY   81  58  45 N23G29    30.01S
BROKEN BOW     MOSUNNY   83  57  41 N20G26    29.97S
ORD            MOSUNNY   84  62  47 N14G24    29.93R
$$

NEZ041-046>049-061>064-073>077-083>087-022200-
SOUTH CENTRAL NEBRASKA

CITY           SKY/WX    TMP DP  RH WIND       PRES   REMARKS
GRAND ISLAND   TSTM      70  65  84 SE7       29.92F
AURORA         HVY RAIN  76  68  76 NE7       29.92S
HASTINGS       MOSUNNY   83  62  49 W8        29.92F
KEARNEY *      MOSUNNY   81  64  57 N14       29.95S
$$

NEZ011>018-030>034-042>045-022200-
NORTHEAST NEBRASKA

CITY           SKY/WX    TMP DP  RH WIND       PRES   REMARKS
NORFOLK        CLOUDY    67  64  90 E8        29.95F
BLAIR          CLOUDY    67  63  87 E6        29.96F FOG
COLUMBUS *     PTSUNNY   72  64  78 E12       29.95F
FREMONT        CLOUDY    68  65  88 E7        29.97S FOG
TEKAMAH        CLOUDY    70  64  81 E7        29.96F
$$

NEZ050>053-065>068-078-088>093-022200-
SOUTHEAST NEBRASKA

CITY           SKY/WX    TMP DP  RH WIND       PRES   REMARKS
LINCOLN        CLOUDY    75  67  76 SE6       29.93F
OMAHA EPPLEY   CLOUDY    69  64  84 SE7       29.96R
FALLS CITY     RAIN      70  67  90 E10       29.91F
$$

NEZ044-045-051>053-067-022200-
OMAHA AREA

CITY           SKY/WX    TMP DP  RH WIND       PRES   REMARKS
OMAHA EPPLEY   CLOUDY    69  64  84 SE7       29.96R
BLAIR          CLOUDY    67  63  87 E6        29.96F FOG
FREMONT        CLOUDY    68  65  88 E7        29.97S FOG
MILLARD        CLOUDY    69  65  89 E3        29.95S
OFFUTT AFB     PTSUNNY   70  66  88 E7        29.95R
$$



USA.gov is the U.S. government's official web portal to all federal, state and local government web resources and services.